User: anonymous   Login
Location: Gollag?dem
(16.8053°N, 80.8024°E)
Time: 07:26:24
(UTC+00:00)
Language:

H-2A R/B - Orbit

View from above orbital plane
View from above orbital plane
View from above satellite
View from above satellite

Ground track
Ground track

The orbit data is extracted from the following two-line orbital elements,

1 38341U 12025E   20299.91235217 +.00000351 +00000-0 +48551-4 0  9997
2 38341 098.5151 103.5066 0055675 171.6993 188.5153 14.84091997456711
Epoch (UTC): 25 October 2020 21:53:47
Eccentricity: 0.0055675
inclination: 98.5151°
perigee height: 577 km
apogee height: 655 km
right ascension of ascending node: 103.5066°
argument of perigee: 171.6993°
revolutions per day: 14.84091997
mean anomaly at epoch: 188.5153°
orbit number at epoch: 45671

The dashed part of the orbit path shows where the satellite is in the earth's shadow,  

DLR